Time[GMT],current_speed[cm/s](2m),current_direction[angular_degrees](2m),temperature[C](2m),current_u[cm/s](2m),current_v[cm/s](2m),signal_strength[db](2m),tilt[degrees](2m)
2020-10-06 03:00,15.92,345.6,15.78,-3.96,15.42,,
2020-10-06 04:00,13.66,13.4,15.78,3.17,13.29,,
2020-10-06 05:00,14.21,15.6,15.77,3.82,13.69,,
2020-10-06 06:00,16.68,42.6,15.77,11.30,12.27,,
2020-10-06 07:00,23.84,58.6,15.79,20.36,12.41,,
2020-10-06 08:00,24.87,72.4,15.78,23.71,7.52,,
2020-10-06 09:00,25.35,75.6,15.75,24.55,6.30,,
2020-10-06 10:00,25.26,80.5,15.72,24.91,4.17,,
2020-10-06 11:00,23.99,83.7,15.72,23.85,2.63,,
2020-10-06 12:00,13.01,59.4,15.73,11.20,6.63,,
2020-10-06 13:00,3.73,349.2,15.73,-0.70,3.67,,
2020-10-06 14:00,10.40,317.2,15.75,-7.07,7.63,,
2020-10-06 15:00,15.48,327.3,15.83,-8.36,13.03,,
2020-10-06 16:00,18.04,10.2,15.92,3.18,17.76,,
2020-10-06 17:00,20.95,24.3,15.95,8.62,19.10,,
2020-10-06 18:00,22.61,40.5,16.01,14.70,17.18,,
2020-10-06 19:00,29.18,35.8,15.98,17.05,23.68,,
2020-10-06 20:00,28.00,38.0,16.03,17.24,22.06,,
2020-10-06 21:00,29.07,32.9,16.01,15.79,24.41,,
2020-10-06 22:00,,,,,,,
2020-10-06 23:00,31.00,47.0,15.94,22.65,21.16,,
2020-10-07 00:00,,,,,,,
2020-10-07 01:00,20.48,43.2,15.88,14.03,14.92,,
2020-10-07 02:00,17.32,10.3,15.87,3.10,17.04,,
2020-10-07 03:00,19.41,355.0,15.87,-1.69,19.34,,
2020-10-07 04:00,18.60,11.9,15.86,3.83,18.20,,
2020-10-07 05:00,9.97,17.0,15.85,2.91,9.54,,
2020-10-07 06:00,,,,,,,
2020-10-07 07:00,19.21,42.3,15.82,12.93,14.21,,
2020-10-07 08:00,22.79,58.2,15.80,19.36,12.02,,
2020-10-07 09:00,18.58,51.2,15.78,14.49,11.63,,
2020-10-07 10:00,21.79,49.6,15.75,16.60,14.11,,
2020-10-07 11:00,24.47,45.2,15.72,17.37,17.24,,
2020-10-07 12:00,19.20,48.8,15.71,14.44,12.65,,
2020-10-07 13:00,10.06,9.4,15.72,1.64,9.93,,
2020-10-07 14:00,,,,,,,
2020-10-07 15:00,14.88,356.5,15.84,-0.91,14.85,,
2020-10-07 16:00,17.51,4.8,15.90,1.47,17.45,,
2020-10-07 17:00,14.69,340.0,15.95,-5.02,13.80,,
2020-10-07 18:00,16.04,27.8,15.99,7.48,14.19,,
2020-10-07 19:00,22.41,32.9,16.09,12.18,18.81,,
2020-10-07 20:00,26.10,52.6,16.04,20.74,15.85,,
2020-10-07 21:00,29.78,63.1,16.08,26.55,13.49,,
2020-10-07 22:00,37.54,63.1,16.10,33.48,16.99,,
2020-10-07 23:00,33.46,81.2,16.04,33.07,5.12,,
2020-10-08 00:00,31.61,80.3,15.94,31.16,5.33,,
2020-10-08 01:00,23.25,87.0,15.83,23.22,1.22,,
2020-10-08 02:00,14.42,74.8,15.77,13.92,3.78,,
2020-10-08 03:00,2.20,159.1,15.75,0.78,-2.05,,
2020-10-08 04:00,9.73,99.6,15.71,9.59,-1.62,,
2020-10-08 05:00,10.20,151.3,15.66,4.90,-8.95,,
2020-10-08 06:00,8.55,174.5,15.63,0.82,-8.51,,
2020-10-08 07:00,11.72,125.2,15.52,9.58,-6.76,,
2020-10-08 08:00,13.64,113.9,15.42,12.47,-5.53,,
2020-10-08 09:00,5.64,113.3,15.36,5.18,-2.23,,
2020-10-08 10:00,13.52,71.2,15.34,12.80,4.36,,
2020-10-08 11:00,12.44,26.9,15.35,5.63,11.09,,
2020-10-08 12:00,18.48,47.2,15.37,13.56,12.55,,
2020-10-08 13:00,13.96,29.6,15.30,6.90,12.14,,
2020-10-08 14:00,17.56,21.5,15.32,6.43,16.34,,
2020-10-08 15:00,12.01,1.5,15.35,0.31,12.01,,
2020-10-08 16:00,13.08,356.0,15.40,-0.92,13.05,,
2020-10-08 17:00,15.22,28.4,15.41,7.24,13.39,,
2020-10-08 18:00,9.65,42.7,15.46,6.55,7.09,,
2020-10-08 19:00,13.74,88.7,15.47,13.74,0.31,,
2020-10-08 20:00,18.61,82.6,15.45,18.46,2.40,,
2020-10-08 21:00,17.33,82.6,15.38,17.19,2.23,,
2020-10-08 22:00,12.76,78.1,15.33,12.49,2.63,,
2020-10-08 23:00,10.93,86.5,15.30,10.91,0.67,,
2020-10-09 00:00,13.39,106.1,15.27,12.86,-3.71,,
2020-10-09 01:00,4.65,130.9,15.24,3.51,-3.04,,
2020-10-09 02:00,4.94,282.9,15.22,-4.81,1.10,,
2020-10-09 04:00,21.31,304.5,15.21,-17.56,12.07,,
2020-10-09 05:00,20.28,322.2,15.23,-12.43,16.02,,
2020-10-09 06:00,,,,,,,
2020-10-09 07:00,16.55,342.0,15.13,-5.11,15.74,,
2020-10-09 08:00,24.02,39.6,15.05,15.32,18.50,,
2020-10-09 09:00,24.40,59.0,14.99,20.92,12.56,,
2020-10-09 10:00,23.47,63.8,14.92,21.06,10.35,,
2020-10-09 11:00,18.17,104.3,14.86,17.61,-4.49,,
2020-10-09 12:00,7.89,133.1,14.84,5.76,-5.39,,
2020-10-09 13:00,3.41,152.2,14.81,1.59,-3.01,,
2020-10-09 14:00,6.24,305.9,14.81,-5.05,3.66,,
2020-10-09 15:00,13.60,282.8,14.84,-13.26,3.01,,
2020-10-09 16:00,15.37,286.0,14.90,-14.77,4.24,,
2020-10-09 17:00,18.51,302.7,14.96,-15.58,10.00,,
2020-10-09 18:00,20.62,319.7,14.98,-13.34,15.73,,
2020-10-09 19:00,22.94,345.5,15.00,-5.74,22.21,,
2020-10-09 20:00,24.28,11.7,14.97,4.93,23.77,,
2020-10-09 21:00,27.06,26.1,14.94,11.90,24.30,,
2020-10-09 22:00,28.53,31.8,14.91,15.05,24.24,,
2020-10-09 23:00,24.14,44.7,14.82,16.97,17.16,,
2020-10-10 00:00,22.67,58.8,14.70,19.38,11.76,,
2020-10-10 01:00,,,,,,,
2020-10-10 02:00,15.09,55.7,14.28,12.47,8.50,,
2020-10-10 03:00,11.82,12.1,14.27,2.47,11.56,,
2020-10-10 04:00,10.17,343.1,14.27,-2.96,9.73,,
2020-10-10 05:00,20.82,334.5,14.35,-8.96,18.79,,
2020-10-10 06:00,16.69,329.2,14.37,-8.55,14.34,,
2020-10-10 07:00,16.92,330.9,14.39,-8.23,14.78,,
2020-10-10 08:00,17.96,355.0,14.37,-1.58,17.89,,
2020-10-10 09:00,20.42,2.7,14.18,0.96,20.40,,
2020-10-10 10:00,22.15,24.7,14.19,9.26,20.12,,
2020-10-10 11:00,25.25,23.0,14.14,9.87,23.24,,
2020-10-10 12:00,22.66,38.3,14.03,14.04,17.79,,
2020-10-10 13:00,,,,,,,
2020-10-10 14:00,24.81,68.7,14.05,23.12,9.01,,
2020-10-10 15:00,15.44,48.6,14.11,11.59,10.20,,
2020-10-10 16:00,13.40,17.2,14.15,3.97,12.80,,
2020-10-10 17:00,12.31,45.7,14.20,8.81,8.60,,
2020-10-10 18:00,5.03,40.6,14.27,3.27,3.82,,
2020-10-10 19:00,0.68,177.1,14.32,0.03,-0.68,,
2020-10-10 20:00,5.09,330.3,14.34,-2.52,4.42,,
2020-10-10 21:00,9.74,337.9,14.30,-3.66,9.02,,
2020-10-10 22:00,15.11,354.6,14.29,-1.41,15.04,,
2020-10-10 23:00,27.09,349.5,14.53,-4.93,26.64,,
2020-10-11 00:00,18.88,359.9,14.73,-0.04,18.88,,
2020-10-11 01:00,21.48,30.0,14.74,10.73,18.61,,
2020-10-11 02:00,21.23,28.0,14.69,9.97,18.74,,
2020-10-11 03:00,20.72,29.8,14.46,10.28,17.99,,
2020-10-11 04:00,21.10,35.3,14.23,12.20,17.21,,
2020-10-11 05:00,14.29,46.9,14.22,10.44,9.76,,
2020-10-11 06:00,9.21,63.5,14.26,8.24,4.11,,
2020-10-11 07:00,3.01,142.9,14.26,1.82,-2.40,,
2020-10-11 08:00,9.15,201.3,14.21,-3.32,-8.52,,
2020-10-11 09:00,16.81,209.5,14.22,-8.28,-14.63,,
2020-10-11 10:00,13.45,201.5,14.29,-4.93,-12.51,,
2020-10-11 11:00,11.29,213.1,14.30,-6.17,-9.46,,
2020-10-11 12:00,10.43,237.8,14.27,-8.83,-5.56,,
2020-10-11 13:00,8.68,215.9,14.20,-5.09,-7.03,,
2020-10-11 14:00,11.43,253.4,14.15,-10.95,-3.27,,
2020-10-11 15:00,10.58,328.9,13.98,-5.46,9.06,,
2020-10-11 16:00,14.88,329.2,14.01,-7.62,12.78,,
2020-10-11 17:00,22.34,323.4,14.08,-13.32,17.93,,
2020-10-11 18:00,26.94,322.7,14.20,-16.33,21.43,,
2020-10-11 19:00,31.97,331.8,14.77,-15.11,28.18,,
2020-10-11 20:00,31.53,337.1,14.57,-12.27,29.04,,
2020-10-11 21:00,31.43,339.4,14.57,-11.06,29.42,,
2020-10-11 22:00,35.60,341.1,14.50,-11.53,33.68,,
2020-10-11 23:00,28.50,356.1,14.09,-1.93,28.43,,
2020-10-12 00:00,21.64,8.8,13.61,3.31,21.38,,
2020-10-12 01:00,12.64,33.8,13.37,7.04,10.50,,
2020-10-12 02:00,10.89,34.6,13.36,6.19,8.96,,
2020-10-12 03:00,11.63,56.7,13.39,9.72,6.39,,
2020-10-12 04:00,4.34,347.2,13.49,-0.96,4.23,,
2020-10-12 05:00,9.29,349.5,13.47,-1.69,9.13,,
2020-10-12 06:00,29.28,358.3,13.82,-0.88,29.27,,
2020-10-12 07:00,18.22,340.2,13.89,-6.17,17.14,,
2020-10-12 08:00,18.37,336.0,13.92,-7.47,16.78,,
2020-10-12 09:00,21.18,336.9,14.05,-8.31,19.48,,
2020-10-12 10:00,21.00,331.7,14.29,-9.96,18.49,,
2020-10-12 11:00,24.07,351.7,14.42,-3.47,23.82,,
2020-10-12 12:00,24.70,11.5,14.51,4.92,24.21,,
2020-10-12 13:00,25.60,357.5,14.60,-1.14,25.57,,
2020-10-12 14:00,23.43,5.3,14.63,2.16,23.33,,
2020-10-12 15:00,24.17,16.1,14.63,6.69,23.22,,
2020-10-12 16:00,26.69,27.8,14.58,12.44,23.61,,
2020-10-12 17:00,21.36,12.6,14.57,4.65,20.85,,
2020-10-12 18:00,24.63,351.3,14.58,-3.71,24.35,,
2020-10-12 19:00,24.84,326.2,14.57,-13.82,20.64,,
2020-10-12 20:00,24.45,328.2,14.57,-12.88,20.78,,
2020-10-12 21:00,20.01,338.7,14.59,-7.27,18.64,,
2020-10-12 22:00,15.67,341.1,14.63,-5.08,14.83,,
2020-10-12 23:00,19.44,336.6,14.63,-7.72,17.84,,
2020-10-13 00:00,22.22,348.1,14.65,-4.57,21.74,,
2020-10-13 01:00,19.67,354.7,14.65,-1.82,19.59,,
2020-10-13 02:00,26.08,355.7,14.63,-1.96,26.01,,
2020-10-13 03:00,24.50,2.5,14.60,1.07,24.48,,
2020-10-13 04:00,29.05,4.2,14.58,2.11,28.97,,
2020-10-13 05:00,29.69,2.1,14.53,1.10,29.67,,
2020-10-13 06:00,27.98,351.2,14.47,-4.29,27.65,,
2020-10-13 07:00,26.06,337.6,14.40,-9.93,24.09,,
2020-10-13 08:00,27.30,321.9,14.32,-16.85,21.48,,
2020-10-13 09:00,32.44,325.1,14.29,-18.56,26.61,,
2020-10-13 10:00,28.22,327.7,14.27,-15.08,23.85,,
2020-10-13 11:00,19.72,328.8,14.27,-10.22,16.87,,
2020-10-13 12:00,28.52,318.6,14.30,-18.86,21.39,,
2020-10-13 13:00,27.46,341.9,14.30,-8.53,26.10,,
2020-10-13 14:00,21.31,339.0,14.31,-7.64,19.89,,
2020-10-13 15:00,23.47,340.9,14.33,-7.68,22.18,,
2020-10-13 16:00,28.71,358.5,14.35,-0.75,28.70,,
2020-10-13 17:00,32.18,4.7,14.33,2.61,32.07,,
2020-10-13 18:00,,,,,,,
2020-10-13 19:00,32.30,333.6,14.26,-14.36,28.93,,
2020-10-13 20:00,23.09,337.5,14.27,-8.84,21.33,,
2020-10-13 22:00,21.81,342.7,14.38,-6.49,20.82,,
2020-10-13 23:00,10.11,338.4,14.40,-3.72,9.40,,
2020-10-14 00:00,8.59,324.4,14.44,-5.00,6.98,,
2020-10-14 01:00,9.54,291.3,14.45,-8.89,3.47,,
2020-10-14 02:00,8.86,235.6,14.44,-7.31,-5.01,,
2020-10-14 03:00,,,,,,,
2020-10-14 04:00,12.61,150.5,14.36,6.21,-10.98,,
2020-10-14 05:00,5.21,175.2,14.32,0.44,-5.19,,
2020-10-14 06:00,,,,,,,
2020-10-14 07:00,5.50,250.2,14.31,-5.18,-1.86,,
2020-10-14 08:00,,,,,,,
2020-10-14 09:00,14.07,296.5,14.41,-12.59,6.28,,
2020-10-14 10:00,14.31,292.0,14.43,-13.27,5.36,,
2020-10-14 11:00,10.88,0.0,14.46,0.00,10.88,,
2020-10-14 12:00,3.61,348.3,14.46,-0.73,3.54,,
2020-10-14 13:00,5.93,37.6,14.47,3.62,4.69,,
2020-10-14 14:00,15.66,62.0,14.49,13.82,7.36,,
2020-10-14 15:00,12.67,63.7,14.53,11.36,5.61,,
2020-10-14 16:00,22.60,84.0,14.49,22.48,2.36,,
2020-10-14 17:00,16.40,84.8,14.50,16.33,1.49,,
2020-10-14 18:00,23.77,75.4,14.56,23.00,5.99,,
2020-10-14 19:00,12.12,80.2,14.55,11.94,2.06,,
2020-10-14 20:00,2.04,38.6,14.59,1.27,1.59,,
2020-10-14 21:00,7.36,289.4,14.63,-6.94,2.44,,
2020-10-14 22:00,11.38,290.0,14.60,-10.69,3.89,,
2020-10-14 23:00,14.69,309.6,14.61,-11.32,9.36,,
2020-10-15 00:00,13.93,332.6,14.64,-6.41,12.37,,
2020-10-15 01:00,13.66,345.0,14.67,-3.54,13.19,,
2020-10-15 02:00,16.23,32.9,14.60,8.82,13.62,,
2020-10-15 03:00,,,,,,,
2020-10-15 04:00,,,,,,,
2020-10-15 05:00,30.40,56.1,14.45,25.25,16.93,,
2020-10-15 06:00,27.53,65.8,14.33,25.11,11.29,,
2020-10-15 07:00,23.43,75.4,14.25,22.67,5.91,,
2020-10-15 08:00,14.02,69.8,14.23,13.16,4.84,,
2020-10-15 09:00,3.23,315.5,14.22,-2.26,2.30,,
2020-10-15 10:00,8.96,277.6,14.23,-8.88,1.19,,
2020-10-15 11:00,12.86,297.5,14.24,-11.41,5.94,,
2020-10-15 12:00,14.43,288.0,14.26,-13.72,4.46,,
2020-10-15 13:00,15.93,316.6,14.31,-10.95,11.57,,
2020-10-15 14:00,11.64,335.7,14.35,-4.79,10.61,,
2020-10-15 15:00,18.74,13.0,14.40,4.21,18.26,,
2020-10-15 16:00,21.74,33.8,14.40,12.08,18.08,,
2020-10-15 17:00,33.27,35.4,14.45,19.25,27.13,,
2020-10-15 18:00,,,,,,,
2020-10-15 19:00,37.80,36.9,14.47,22.71,30.22,,
2020-10-15 20:00,,,,,,,
2020-10-15 21:00,22.71,12.8,14.42,5.02,22.15,,
2020-10-15 22:00,15.08,358.3,14.40,-0.44,15.07,,
2020-10-15 23:00,19.69,345.2,14.41,-5.03,19.04,,
2020-10-16 00:00,14.49,333.8,14.45,-6.40,13.00,,
2020-10-16 01:00,13.10,346.5,14.46,-3.06,12.74,,
2020-10-16 02:00,15.53,341.8,14.46,-4.85,14.75,,
2020-10-16 03:00,18.78,11.5,14.45,3.74,18.40,,
2020-10-16 04:00,27.53,10.1,14.46,4.83,27.10,,
2020-10-16 05:00,,,,,,,
2020-10-16 06:00,30.82,32.0,14.48,16.35,26.13,,
2020-10-16 07:00,27.52,31.9,14.49,14.55,23.36,,
2020-10-16 08:00,26.98,18.3,14.49,8.48,25.61,,
2020-10-16 09:00,26.48,358.6,14.51,-0.65,26.47,,
2020-10-16 10:00,20.77,341.4,14.58,-6.62,19.69,,
2020-10-16 11:00,23.79,335.7,14.60,-9.79,21.68,,
2020-10-16 12:00,21.05,324.7,14.54,-12.16,17.18,,
2020-10-16 13:00,18.77,339.6,14.50,-6.54,17.59,,
2020-10-16 14:00,15.08,346.0,14.51,-3.65,14.63,,
2020-10-16 15:00,19.75,11.2,14.55,3.85,19.37,,
2020-10-16 16:00,,,,,,,
2020-10-16 17:00,26.64,24.5,14.63,11.05,24.24,,
2020-10-16 18:00,35.53,36.9,14.72,21.33,28.41,,
2020-10-16 19:00,29.97,48.3,14.67,22.37,19.94,,
2020-10-16 20:00,24.09,43.1,14.59,16.46,17.59,,
2020-10-16 21:00,13.24,27.3,14.58,6.07,11.77,,
2020-10-16 22:00,10.44,330.8,14.64,-5.09,9.11,,
2020-10-16 23:00,12.65,304.2,14.67,-10.46,7.11,,
2020-10-17 00:00,15.09,285.3,14.68,-14.56,3.98,,
2020-10-17 01:00,11.91,285.7,14.69,-11.47,3.22,,
2020-10-17 02:00,10.55,264.8,14.67,-10.51,-0.96,,
2020-10-17 03:00,9.35,280.6,14.67,-9.19,1.72,,
2020-10-17 04:00,,,,,,,
2020-10-17 05:00,10.61,48.5,14.67,7.95,7.03,,
2020-10-17 06:00,14.24,16.0,14.65,3.93,13.69,,
2020-10-17 07:00,9.30,36.9,14.61,5.58,7.44,,
2020-10-17 08:00,,,,,,,
2020-10-17 09:00,,,,,,,
2020-10-17 10:00,3.32,129.2,14.50,2.57,-2.10,,
2020-10-17 11:00,14.13,230.2,14.52,-10.86,-9.04,,
2020-10-17 12:00,12.53,232.7,14.53,-9.97,-7.59,,
2020-10-17 13:00,15.51,235.2,14.51,-12.74,-8.85,,
2020-10-17 14:00,10.77,229.1,14.50,-8.14,-7.05,,
2020-10-17 15:00,,,,,,,
2020-10-17 16:00,6.51,153.0,14.45,2.96,-5.80,,
2020-10-17 17:00,14.35,167.7,14.44,3.06,-14.02,,
2020-10-17 18:00,12.20,126.2,14.45,9.84,-7.21,,
2020-10-17 19:00,9.98,80.4,14.45,9.84,1.66,,
2020-10-17 20:00,18.92,77.6,14.44,18.48,4.06,,
2020-10-17 21:00,14.72,61.4,14.42,12.92,7.06,,
2020-10-17 22:00,6.48,16.6,14.41,1.85,6.21,,
2020-10-17 23:00,13.26,302.1,14.40,-11.23,7.05,,
2020-10-18 00:00,19.05,294.9,14.38,-17.28,8.02,,
2020-10-18 01:00,22.28,298.0,14.36,-19.67,10.46,,
2020-10-18 02:00,20.25,314.6,14.34,-14.42,14.22,,
2020-10-18 03:00,13.83,320.6,14.28,-8.78,10.69,,
2020-10-18 04:00,13.86,2.5,14.29,0.60,13.85,,
2020-10-18 05:00,15.42,34.4,14.27,8.72,12.72,,
2020-10-18 06:00,14.26,61.1,14.25,12.49,6.89,,
2020-10-18 07:00,18.44,65.6,14.24,16.79,7.62,,
2020-10-18 08:00,20.03,58.0,14.26,16.99,10.61,,
2020-10-18 09:00,15.28,61.3,14.26,13.40,7.34,,
2020-10-18 10:00,7.96,37.5,14.24,4.84,6.32,,
2020-10-18 11:00,7.69,270.5,14.24,-7.69,0.07,,
2020-10-18 12:00,17.31,277.7,14.24,-17.15,2.32,,
2020-10-18 13:00,22.21,278.3,14.23,-21.98,3.21,,
2020-10-18 14:00,20.25,289.1,14.23,-19.14,6.63,,
2020-10-18 15:00,19.83,296.1,14.24,-17.81,8.72,,
2020-10-18 16:00,13.33,308.9,14.23,-10.37,8.37,,
2020-10-18 17:00,15.40,317.7,14.26,-10.36,11.39,,
2020-10-18 18:00,20.46,343.9,14.27,-5.67,19.66,,
2020-10-18 19:00,20.98,8.0,14.30,2.91,20.78,,
2020-10-18 20:00,22.05,20.5,14.31,7.72,20.65,,
2020-10-18 21:00,20.74,21.6,14.27,7.62,19.29,,
2020-10-18 22:00,18.80,30.2,14.26,9.44,16.26,,
2020-10-18 23:00,16.75,1.1,14.25,0.32,16.75,,
2020-10-19 00:00,18.17,314.9,14.25,-12.87,12.83,,
2020-10-19 01:00,22.11,299.2,14.23,-19.30,10.79,,
2020-10-19 02:00,23.63,295.1,14.20,-21.40,10.02,,
2020-10-19 03:00,22.29,292.9,14.19,-20.53,8.67,,
2020-10-19 04:00,15.89,297.4,14.16,-14.11,7.31,,
2020-10-19 05:00,14.79,323.8,14.17,-8.74,11.93,,
2020-10-19 06:00,13.49,351.2,14.18,-2.07,13.33,,
2020-10-19 07:00,11.22,343.5,14.16,-3.19,10.76,,
2020-10-19 08:00,9.89,353.2,14.06,-1.18,9.82,,
2020-10-19 09:00,11.65,345.8,14.00,-2.85,11.30,,
2020-10-19 10:00,19.30,322.4,13.82,-11.78,15.29,,
2020-10-19 11:00,13.93,346.2,13.30,-3.33,13.53,,
2020-10-19 12:00,18.49,308.0,13.30,-14.57,11.38,,
2020-10-19 13:00,20.01,305.0,13.32,-16.39,11.48,,
2020-10-19 14:00,19.55,307.4,13.34,-15.53,11.87,,
2020-10-19 15:00,18.83,317.3,13.36,-12.77,13.84,,
2020-10-19 16:00,18.79,317.0,13.44,-12.81,13.74,,
2020-10-19 17:00,16.89,317.1,13.76,-11.50,12.37,,
2020-10-19 18:00,16.67,352.0,13.75,-2.31,16.51,,
2020-10-19 19:00,16.79,4.5,14.07,1.31,16.74,,
2020-10-19 20:00,17.34,13.9,13.90,4.15,16.84,,
2020-10-19 21:00,15.39,20.9,13.64,5.49,14.38,,
2020-10-19 22:00,18.00,19.8,13.50,6.09,16.94,,
2020-10-19 23:00,,,,,,,
2020-10-20 00:00,17.85,357.8,13.69,-0.69,17.84,,
2020-10-20 01:00,16.76,327.7,13.64,-8.96,14.17,,
2020-10-20 02:00,16.91,325.4,13.59,-9.60,13.92,,
2020-10-20 03:00,14.43,327.4,13.50,-7.77,12.16,,
2020-10-20 04:00,18.50,305.5,13.26,-15.06,10.74,,
2020-10-20 05:00,18.70,300.6,13.32,-16.10,9.52,,
2020-10-20 06:00,13.71,335.4,13.36,-5.71,12.47,,
2020-10-20 07:00,15.17,25.3,13.42,6.49,13.71,,
2020-10-20 08:00,11.13,26.3,13.42,4.92,9.98,,
2020-10-20 09:00,9.92,41.9,13.44,6.63,7.38,,
2020-10-20 10:00,15.66,43.6,13.52,10.79,11.35,,
2020-10-20 11:00,19.01,43.4,13.64,13.07,13.80,,
2020-10-20 12:00,7.43,10.0,13.69,1.29,7.32,,
2020-10-20 13:00,10.98,319.3,13.72,-7.16,8.32,,
2020-10-20 14:00,13.65,302.8,13.62,-11.47,7.39,,
2020-10-20 15:00,13.07,327.7,13.58,-6.98,11.05,,
2020-10-20 16:00,13.52,328.3,13.53,-7.10,11.50,,
2020-10-20 17:00,4.90,350.9,13.62,-0.78,4.83,,
2020-10-20 18:00,6.08,41.0,13.69,3.99,4.58,,
2020-10-20 19:00,8.43,81.4,13.77,8.34,1.26,,
2020-10-20 20:00,16.65,63.9,14.04,14.95,7.34,,
2020-10-20 21:00,14.98,106.2,14.27,14.39,-4.18,,
2020-10-20 22:00,14.14,92.9,14.12,14.12,-0.72,,
2020-10-20 23:00,11.17,59.1,14.23,9.59,5.73,,
2020-10-21 00:00,10.80,34.7,14.29,6.14,8.88,,
2020-10-21 01:00,10.38,351.3,14.28,-1.57,10.26,,
2020-10-21 02:00,13.84,300.4,14.18,-11.94,7.00,,
2020-10-21 03:00,12.42,330.9,14.15,-6.04,10.85,,
2020-10-21 04:00,11.92,287.0,14.12,-11.40,3.49,,
2020-10-21 05:00,13.02,312.6,13.93,-9.58,8.81,,
2020-10-21 06:00,6.47,292.3,13.94,-5.99,2.46,,
2020-10-21 07:00,6.58,329.8,13.89,-3.31,5.69,,
2020-10-21 08:00,1.79,58.0,13.91,1.52,0.95,,
2020-10-21 09:00,1.18,26.1,13.86,0.52,1.06,,
2020-10-21 10:00,2.00,97.6,13.82,1.99,-0.27,,
2020-10-21 11:00,6.50,31.5,13.81,3.40,5.55,,
2020-10-21 12:00,9.97,339.6,13.77,-3.48,9.34,,
2020-10-21 13:00,11.99,294.8,13.74,-10.88,5.03,,
2020-10-21 14:00,,,,,,,
2020-10-21 15:00,24.79,305.6,13.45,-20.16,14.43,,
2020-10-21 16:00,19.37,335.9,13.33,-7.91,17.68,,
2020-10-21 17:00,16.32,330.9,13.34,-7.94,14.26,,
2020-10-21 18:00,14.17,323.1,13.42,-8.51,11.33,,
2020-10-21 19:00,14.59,4.4,13.55,1.11,14.55,,
2020-10-21 20:00,16.10,54.6,13.53,13.12,9.34,,
2020-10-21 21:00,22.96,71.8,13.48,21.81,7.17,,
2020-10-21 22:00,22.27,69.7,13.75,20.89,7.73,,
2020-10-21 23:00,22.17,63.5,13.59,19.85,9.88,,
2020-10-22 00:00,18.61,49.2,13.98,14.09,12.16,,
2020-10-22 01:00,13.95,33.3,14.18,7.65,11.66,,
2020-10-22 02:00,16.36,8.5,14.22,2.43,16.18,,
2020-10-22 03:00,17.67,350.5,14.23,-2.92,17.43,,
2020-10-22 04:00,16.77,356.7,14.18,-0.96,16.74,,
2020-10-22 05:00,12.67,10.4,14.17,2.29,12.46,,
2020-10-22 06:00,6.10,31.5,14.17,3.19,5.20,,
2020-10-22 07:00,5.19,39.4,14.19,3.30,4.01,,
2020-10-22 08:00,6.79,77.9,14.17,6.64,1.42,,
2020-10-22 09:00,5.43,102.3,14.11,5.30,-1.16,,
2020-10-22 10:00,9.57,105.6,14.15,9.22,-2.57,,
2020-10-22 11:00,9.21,111.1,14.11,8.59,-3.32,,
2020-10-22 12:00,6.40,61.0,14.08,5.60,3.10,,
2020-10-22 13:00,10.03,16.8,14.12,2.90,9.60,,
2020-10-22 14:00,11.94,317.5,14.16,-8.07,8.80,,
2020-10-22 15:00,18.94,313.0,14.22,-13.85,12.92,,
2020-10-22 16:00,22.10,299.8,14.34,-19.18,10.98,,
2020-10-22 17:00,21.13,323.3,14.13,-12.63,16.94,,
2020-10-22 18:00,15.49,319.0,14.05,-10.16,11.69,,
2020-10-22 19:00,13.27,330.3,13.69,-6.57,11.53,,
2020-10-22 20:00,14.37,342.5,13.67,-4.32,13.70,,
2020-10-22 21:00,17.52,18.9,13.57,5.68,16.57,,
2020-10-22 22:00,18.38,34.2,13.59,10.34,15.20,,
2020-10-22 23:00,19.88,57.3,13.73,16.72,10.75,,
2020-10-23 00:00,21.37,57.9,13.89,18.10,11.36,,
2020-10-23 01:00,20.40,57.2,13.96,17.15,11.05,,
2020-10-23 02:00,10.75,47.4,14.00,7.91,7.28,,
2020-10-23 03:00,4.13,342.5,14.04,-1.24,3.94,,
2020-10-23 04:00,10.41,304.6,13.97,-8.57,5.91,,
2020-10-23 05:00,10.84,323.2,13.90,-6.49,8.68,,
2020-10-23 06:00,10.86,300.9,13.92,-9.32,5.58,,
2020-10-23 07:00,12.05,300.1,13.90,-10.43,6.04,,
2020-10-23 08:00,9.00,322.2,13.84,-5.52,7.11,,
2020-10-23 09:00,12.42,349.3,13.85,-2.30,12.21,,
2020-10-23 10:00,6.94,16.9,13.88,2.01,6.64,,
2020-10-23 11:00,9.60,69.4,13.91,8.99,3.38,,
2020-10-23 12:00,6.49,11.7,13.92,1.31,6.35,,
2020-10-23 13:00,8.64,13.3,13.97,1.99,8.41,,
2020-10-23 14:00,7.68,31.2,14.01,3.98,6.57,,
2020-10-23 15:00,5.09,357.9,14.03,-0.19,5.09,,
2020-10-23 16:00,13.11,308.9,14.09,-10.20,8.23,,
2020-10-23 17:00,16.92,302.8,14.07,-14.22,9.17,,
2020-10-23 18:00,17.44,299.9,14.18,-15.12,8.69,,
2020-10-23 19:00,15.85,300.7,14.15,-13.63,8.09,,
2020-10-23 20:00,8.92,322.2,14.42,-5.47,7.05,,
2020-10-23 21:00,13.44,318.3,14.39,-8.94,10.03,,
2020-10-23 22:00,13.44,331.6,14.27,-6.39,11.82,,
2020-10-23 23:00,11.90,15.3,14.19,3.13,11.48,,
2020-10-24 00:00,12.88,64.0,14.14,11.57,5.66,,
2020-10-24 01:00,13.71,56.7,14.33,11.46,7.52,,
2020-10-24 02:00,13.45,56.4,14.47,11.20,7.45,,
2020-10-24 03:00,10.23,35.8,14.45,5.98,8.30,,
2020-10-24 04:00,10.64,359.2,14.44,-0.14,10.64,,
2020-10-24 05:00,12.98,339.7,14.42,-4.50,12.17,,
2020-10-24 06:00,14.95,340.9,14.40,-4.89,14.13,,
2020-10-24 07:00,8.41,358.0,14.39,-0.30,8.40,,
2020-10-24 08:00,5.30,7.8,14.37,0.72,5.25,,
2020-10-24 09:00,7.70,54.3,14.37,6.25,4.50,,
2020-10-24 10:00,9.25,78.1,14.35,9.05,1.91,,
2020-10-24 11:00,17.13,82.3,14.34,16.98,2.30,,
2020-10-24 12:00,12.88,94.5,14.31,12.84,-1.01,,
2020-10-24 13:00,11.53,118.6,14.30,10.12,-5.52,,
2020-10-24 14:00,11.85,96.5,14.29,11.77,-1.34,,
2020-10-24 15:00,8.94,53.7,14.31,7.20,5.29,,
2020-10-24 16:00,7.06,335.1,14.32,-2.97,6.40,,
2020-10-24 17:00,13.60,339.0,14.39,-4.87,12.70,,
2020-10-24 18:00,17.88,319.7,14.45,-11.56,13.64,,
2020-10-24 19:00,15.51,337.7,14.46,-5.89,14.35,,
2020-10-24 20:00,10.18,351.5,14.47,-1.50,10.07,,
2020-10-24 21:00,6.28,357.4,14.52,-0.28,6.28,,
2020-10-24 22:00,11.20,52.1,14.52,8.84,6.88,,
2020-10-24 23:00,13.91,94.9,14.39,13.86,-1.19,,
2020-10-25 00:00,13.62,119.8,14.33,11.82,-6.77,,
2020-10-25 01:00,24.59,134.5,14.26,17.54,-17.24,,
2020-10-25 02:00,25.08,136.6,14.15,17.23,-18.22,,
2020-10-25 03:00,22.65,130.6,14.06,17.20,-14.74,,
2020-10-25 04:00,20.52,165.2,14.01,5.24,-19.84,,
2020-10-25 05:00,11.55,206.9,14.01,-5.23,-10.30,,
2020-10-25 06:00,21.62,251.5,14.00,-20.50,-6.86,,
2020-10-25 07:00,21.67,264.0,13.97,-21.55,-2.27,,
2020-10-25 08:00,22.03,283.6,13.87,-21.41,5.18,,
2020-10-25 09:00,14.23,274.1,13.84,-14.19,1.02,,
2020-10-25 10:00,11.93,294.7,13.81,-10.84,4.99,,
2020-10-25 11:00,9.51,300.5,13.77,-8.19,4.83,,
2020-10-25 12:00,2.19,30.0,13.72,1.10,1.90,,
2020-10-25 13:00,1.52,153.7,13.70,0.67,-1.36,,
2020-10-25 14:00,8.27,190.9,13.70,-1.56,-8.12,,
2020-10-25 15:00,5.21,169.2,13.70,0.98,-5.12,,
2020-10-25 16:00,3.43,120.8,13.69,2.95,-1.76,,
2020-10-25 17:00,1.86,282.8,13.70,-1.81,0.41,,
2020-10-25 18:00,10.16,258.2,13.70,-9.95,-2.08,,
2020-10-25 19:00,10.42,279.1,13.68,-10.29,1.65,,
2020-10-25 20:00,7.68,279.9,13.65,-7.57,1.32,,
2020-10-25 21:00,5.63,271.2,13.64,-5.62,0.12,,
2020-10-25 22:00,10.26,256.5,13.61,-9.98,-2.40,,
2020-10-25 23:00,6.30,204.3,13.59,-2.59,-5.75,,
2020-10-26 00:00,1.37,206.9,13.59,-0.62,-1.22,,
2020-10-26 01:00,5.28,153.7,13.58,2.34,-4.73,,
2020-10-26 02:00,2.92,185.5,13.58,-0.28,-2.91,,
2020-10-26 03:00,4.24,66.3,13.57,3.88,1.70,,
2020-10-26 04:00,3.97,14.7,13.57,1.01,3.84,,
2020-10-26 05:00,5.68,336.4,13.57,-2.27,5.20,,
2020-10-26 06:00,5.22,311.6,13.56,-3.91,3.47,,
2020-10-26 07:00,13.29,292.1,13.53,-12.31,5.00,,
2020-10-26 08:00,13.49,296.6,13.54,-12.06,6.04,,
2020-10-26 09:00,18.51,285.5,13.50,-17.84,4.95,,
2020-10-26 10:00,12.20,296.6,13.50,-10.91,5.46,,
2020-10-26 11:00,11.68,318.1,13.52,-7.80,8.69,,
2020-10-26 12:00,9.17,326.9,13.54,-5.01,7.68,,
2020-10-26 13:00,5.97,51.4,13.55,4.67,3.73,,
2020-10-26 14:00,4.98,60.0,13.55,4.32,2.49,,
2020-10-26 15:00,5.11,60.3,13.54,4.44,2.53,,
2020-10-26 16:00,9.74,65.9,13.54,8.89,3.98,,
2020-10-26 17:00,6.22,64.4,13.50,5.61,2.68,,
2020-10-26 18:00,4.75,262.2,13.49,-4.71,-0.65,,
2020-10-26 19:00,3.04,252.1,13.49,-2.90,-0.94,,
2020-10-26 20:00,7.80,256.4,13.50,-7.58,-1.83,,
2020-10-26 21:00,9.04,283.6,13.50,-8.79,2.13,,
2020-10-26 22:00,8.08,289.2,13.52,-7.63,2.66,,